Content
SEND FEEDBACK

Daily
Averages
Monthly
Summary
United States of America

PLEASANTON, TEXAS


Home > North America > United States > Texas
Elevation: 370 feet     Latitude: 28 58N     Longitude: 098 29W

WEATHER
 
SELECT A DAY
Number of Records: 187,277;   Date Range: 1/23/07 - 12/17/14
 
SHARE

PRINT THIS DATA

[ ← Previous Day ]
WEATHER ALMANAC - FEBRUARY 13, 2013
[ Next Day → ]
[ °C ]   °F
Weather ElementAverageHighLow
Temperature17.9 °F64 °F (4:35 pm) (12:35 am)
Dewpoint11.7 °F37 °F (11:55 pm) (7:00 pm)
Humidity52.7 %80 % (11:55 pm)29 % (4:15 pm)
Barometer30.10 in30.19 in (9:15 am)30.03 in (6:35 pm)
Wind Speed3.2 mph13.8 mph (1:15 am)
Wind Gust21.9 mph (2:55 am)
Weather ElementAverage
Visibility10 mi
Wind DirectionSE (139.2 °)

Weather ElementTotal
Precipitation---
Heating Degree Days33 (Base 65)
Averaged from 71 records on February 13, 2013
WEATHER CONDITIONS BREAKOUT
WIND DIRECTION BREAKOUT
WEATHER BY HOUR - FEBRUARY 13, 2013
[ °C ]   °F
Local TimeTemperatureDewpointHumidityBarometerVisibilityWind DirectionWind SpeedGust SpeedPrecipitationEventsConditions
12:35 AM0.0 °F0.0 °F30.05 in10.0 miNorth (350°)9.2 mphClear
12:55 AM0.0 °F0.0 °F30.05 in10.0 miNNW (340°)10.4 mphClear
1:15 AM0.0 °F0.0 °F30.07 in10.0 miNorth (360°)13.8 mph18.4 mphClear
1:35 AM0.0 °F0.0 °F30.08 in10.0 miNorth (350°)12.7 mph18.4 mphClear
1:55 AM0.0 °F0.0 °F30.08 in10.0 miNNW (340°)11.5 mph17.3 mphScattered Clouds
2:15 AM0.0 °F0.0 °F30.08 in10.0 miNorth (350°)10.4 mphClear
2:35 AM0.0 °F0.0 °F30.08 in10.0 miNorth (350°)10.4 mph19.6 mphClear
2:55 AM0.0 °F0.0 °F30.08 in10.0 miNorth (350°)11.5 mph21.9 mphClear
3:15 AM0.0 °F0.0 °F30.08 in10.0 miNNW (330°)11.5 mph19.6 mphClear
3:35 AM0.0 °F0.0 °F30.09 in10.0 miNNW (340°)8.1 mphClear
3:55 AM0.0 °F0.0 °F30.10 in10.0 miNNW (340°)5.8 mphClear
4:15 AM0.0 °F0.0 °F30.10 in10.0 miNorth (360°)4.6 mphClear
4:35 AM0.0 °F0.0 °F30.10 in10.0 miNorth (360°)5.8 mphClear
4:55 AM0.0 °F0.0 °F30.11 in10.0 miNNE (20°)5.8 mphClear
5:15 AM0.0 °F0.0 °F30.11 in10.0 miNorth (360°)4.6 mphClear
5:35 AM0.0 °F0.0 °F30.12 in10.0 miCalmScattered Clouds
5:55 AM0.0 °F0.0 °F30.13 in10.0 miCalmScattered Clouds
6:15 AM0.0 °F0.0 °F30.13 in10.0 miNorth (350°)3.5 mphScattered Clouds
6:35 AM0.0 °F0.0 °F30.13 in10.0 miCalmClear
6:55 AM0.0 °F0.0 °F30.14 in10.0 miNNW (340°)3.5 mphClear
7:15 AM0.0 °F0.0 °F30.14 in10.0 miNNW (330°)5.8 mphClear
7:35 AM0.0 °F0.0 °F30.15 in10.0 miNNW (330°)4.6 mphClear
7:55 AM0.0 °F0.0 °F30.17 in10.0 miCalmClear
8:15 AM0.0 °F0.0 °F30.17 in10.0 miNW (310°)3.5 mphClear
8:35 AM0.0 °F0.0 °F30.18 in10.0 miNW (310°)4.6 mphClear
8:55 AM0.0 °F0.0 °F30.18 in10.0 miNW (310°)5.8 mphClear
9:15 AM0.0 °F0.0 °F30.19 in10.0 miNNW (340°)3.5 mphClear
9:35 AM0.0 °F0.0 °F30.19 in10.0 miNorth (360°)3.5 mphClear
9:55 AM0.0 °F0.0 °F30.19 in10.0 miCalmClear
10:15 AM0.0 °F0.0 °F30.19 in10.0 miNW (310°)3.5 mphClear
10:35 AM0.0 °F0.0 °F30.19 in10.0 miENE (60°)3.5 mphClear
10:55 AM0.0 °F0.0 °F30.19 in10.0 miCalmClear
11:15 AM0.0 °F0.0 °F30.18 in10.0 miCalmClear
11:35 AM0.0 °F0.0 °F30.17 in10.0 miWNW (290°)5.8 mphClear
11:55 AM0.0 °F0.0 °F30.17 in10.0 miSSW (200°)3.5 mphClear
12:15 PM0.0 °F0.0 °F30.16 in10.0 miCalmClear
12:35 PM0.0 °F0.0 °F30.15 in10.0 miCalmClear
12:55 PM0.0 °F0.0 °F30.14 in10.0 miCalmClear
1:15 PM0.0 °F0.0 °F30.12 in10.0 miCalmClear
1:35 PM0.0 °F0.0 °F30.11 in10.0 miCalmClear
1:55 PM0.0 °F0.0 °F30.10 in10.0 miSW (220°)3.5 mphClear
2:15 PM0.0 °F0.0 °F30.09 in10.0 miCalmClear
2:35 PM0.0 °F0.0 °F30.08 in10.0 miCalmClear
2:55 PM0.0 °F0.0 °F30.07 in10.0 miNorth (10°)4.6 mphClear
3:15 PM0.0 °F0.0 °F30.06 in10.0 miCalmClear
3:35 PM0.0 °F0.0 °F30.05 in10.0 miNE (40°)3.5 mphClear
3:55 PM0.0 °F0.0 °F30.04 in10.0 miCalmClear
4:15 PM63.9 °F31.3 °F29 %30.04 in10.0 miCalmClear
4:35 PM64.0 °F31.5 °F30 %30.04 in10.0 miCalmClear
4:55 PM63.5 °F31.8 °F31 %30.04 in10.0 miSE (140°)4.6 mphClear
5:15 PM63.1 °F32.0 °F31 %30.04 in10.0 miSE (130°)4.6 mphClear
5:35 PM62.2 °F31.6 °F32 %30.04 in10.0 miESE (120°)3.5 mphClear
5:55 PM61.0 °F32.4 °F34 %30.04 in10.0 miSE (130°)4.6 mphClear
6:15 PM59.0 °F32.2 °F36 %30.04 in10.0 miSE (130°)3.5 mphClear
6:35 PM57.7 °F32.5 °F39 %30.03 in10.0 miESE (120°)3.5 mphClear
6:55 PM55.0 °F34.5 °F46 %30.04 in10.0 miCalmClear
7:15 PM54.5 °F34.7 °F47 %30.04 in10.0 miCalmClear
7:35 PM52.5 °F35.1 °F51 %30.05 in10.0 miCalmClear
7:55 PM51.1 °F36.1 °F57 %30.05 in10.0 miCalmClear
8:15 PM50.0 °F36.5 °F60 %30.06 in10.0 miCalmClear
8:35 PM50.0 °F36.0 °F59 %30.06 in10.0 miEast (100°)3.5 mphClear
8:55 PM50.9 °F35.4 °F55 %30.07 in10.0 miCalmClear
9:15 PM49.1 °F35.6 °F60 %30.08 in10.0 miCalmClear
9:35 PM48.2 °F35.8 °F62 %30.09 in10.0 miCalmClear
9:55 PM48.0 °F36.3 °F64 %30.09 in10.0 miCalmClear
10:15 PM45.0 °F36.9 °F73 %30.10 in10.0 miCalmClear
10:35 PM46.0 °F36.5 °F69 %30.10 in10.0 miCalmClear
10:55 PM44.8 °F36.7 °F73 %30.11 in10.0 miCalmClear
11:15 PM45.1 °F36.9 °F73 %30.11 in10.0 miCalmClear
11:35 PM44.8 °F36.7 °F73 %30.11 in10.0 miCalmClear
11:55 PM43.0 °F37.0 °F80 %30.11 in10.0 miCalmClear
Hourly data recorded from KPEZ, located miles away from Pleasanton, Texas







STORIES FROM OUR PARTNERS